Regional Weather Roundup
Issued by NWS New Orleans/Baton Rouge, LA

Home | Current Version | Previous Version | Graphics & Text | Print | Product List | Glossary On
Versions: 1 2 3 4 5 6 7 8 9 10 11 12 13 14 15 16 17 18 19 20 21 22 23 24 25 26 27 28 29 30 31 32 33 34 35 36 37 38 39 40 41 42 43 44 45 46 47 48 49 50
574
ASUS44 KLIX 261501
RWRLIX
NEW ORLEANS REGIONAL WEATHER ROUNDUP
NATIONAL WEATHER SERVICE NEW ORLEANS LA
900 AM CST WED NOV 26 2014

NOTE: "FAIR" INDICATES FEW OR NO CLOUDS BELOW 12,000 FEET WITH NO
      SIGNIFICANT WEATHER AND/OR OBSTRUCTIONS TO VISIBILITY.
      SKY/WX - SKY CONDITION AND SIGNIFICANT WEATHER.
      TMP - AIR TEMPERATURE.     DP    - DEWPOINT TEMPERATURE.
      RH  - RELATIVE HUMIDITY.   PRES  - PRESSURE.
      HI  - HEAT INDEX.          WCI   - WIND CHILL INDEX.

*  THESE STATIONS ARE NOT NWS OR FAA STATIONS AND ARE NOT UNDER
   NWS QUALITY CONTROL.

LAZ038-040-048-061>063-065>067-069-261600-
SOUTHEAST LOUISIANA

CITY           SKY/WX    TMP DP  RH WIND       PRES   REMARKS
N.O. AUDUBON     N/A     53  40  61 MISG        N/A
N.O. INTL ARPT MOSUNNY   51  40  65 S7        30.29R
N.O. LAKEFRONT SUNNY     52  37  56 S6        30.30R
N.O. DOWNTOWN*   N/A     52  36  54 S3        30.29S
SLIDELL        SUNNY     48  34  58 CALM      30.29R
BATON ROUGE    SUNNY     50  38  63 S6        30.27R
BOOTHVILLE     SUNNY     53  37  54 N3        30.31R
BELLE CHASSE   SUNNY     52  37  56 S3        30.29R
BOGALUSA*        N/A     45  35  68 CALM      30.30R
NEW ROADS*     NOT AVBL
GONZALES*      NOT AVBL
HAMMOND*       NOT AVBL
HOUMA*         NOT AVBL
PORT FOURCHON* SUNNY     54  36  50 NE3       30.33S

$$

MSZ070-080>082-261600-
SOUTHERN MISSISSIPPI

CITY           SKY/WX    TMP DP  RH WIND       PRES   REMARKS
MCCOMB         SUNNY     46  35  65 S5        30.25R
GULFPORT       SUNNY     47  30  51 CALM      30.28R
BILOXI         SUNNY     47  28  47 VRB1      30.28R
PASCAGOULA     SUNNY     48  29  47 N3        30.28R
STENNIS ARPT*  SUNNY     45  34  65 CALM      30.30R

$$

COASTAL OBSERVATIONS
LAKE AND NEARSHORE STATIONS

STATION/POSITION TIME  TEMP    WIND        PRES    WAVE
                       AIR SEA DIR/SP/G            HT/PER
                 (UTC) (F)     (DEG/KT/KT) (MB)    (FT/S)
PASCAGOULA       1400   47     360/  3/  4 1024.6
WAVELAND YACHT   1400   47      CALM  /  1 1024.4
GRAND ISLE       1400   54 59  350/  2/  3 1026.4
SOUTHWEST PASS   1400   53                 1026.1
NEW CANAL        1400   49 53  200/  4/  6 1025.9
SHELL BEACH      1400   50 52  230/  3/  4 1025.6

OFFSHORE STATIONS

STATION/POSITION TIME  TEMP    WIND        PRES    WAVE
                       AIR SEA DIR/SP/G            HT/PER
                 (UTC) (F)     (DEG/KT/KT) (MB)    (FT/S)
64 S DAUPHIN ISL 1358   57 70  340/ 12/ 16 1025.6    4/ 5

$$




USA.gov is the U.S. government's official web portal to all federal, state and local government web resources and services.